Preview of NWS' New Version of Forecast
This preview is not operational and should not be used for support decisions.

Regional Weather Roundup (RWR)

Issued by National Weather Service (NWS)

                            
000
ASUS43 KLSX 250707
RWRMO 

WEATHER SUMMARY FOR MISSOURI
NATIONAL WEATHER SERVICE SPRINGFIELD MO
200 AM CDT MON MAR 25 2019

NOTE: "FAIR" INDICATES FEW OR NO CLOUDS BELOW 12,000 FEET WITH NO
       SIGNIFICANT WEATHER AND/OR OBSTRUCTIONS TO VISIBILITY.
       CURRENT SKY AND/OR WEATHER CONDITIONS ARE NOT AVAILABLE FOR
       CHILLICOTHE AND FARMINGTON.

MOZ001>031-035>038-043-044-053-054-250800-
...NORTHERN AND WESTERN MISSOURI...
  
CITY           SKY/WX    TMP DP  RH WIND       PRES   REMARKS
KANSAS CTY INT CLOUDY    48  45  89 N10       30.12R                  
KANSAS C DTWN  CLOUDY    50  44  80 N9        30.12R                  
LEE'S SUMMIT   CLOUDY    49  45  86 N9        30.11R                  
ST JOSEPH        N/A    N/A N/A N/A MISG      30.14R                  
CHILLICOTHE      N/A     49  47  93 N8        30.11R                  
KIRKSVILLE     CLOUDY    47  46  97 N15       30.09S FOG              
     
$$
MOZ066>068-077>081-088>096-101>105-250800-
...SOUTHWEST MISSOURI...
  
CITY           SKY/WX    TMP DP  RH WIND       PRES   REMARKS
SPRINGFIELD    CLOUDY    50  43  77 NW6       30.04S                  
JOPLIN         CLEAR     47  44  90 NW8       30.09S                  
BRANSON        PTCLDY    48  45  87 NW5       30.06F                  
               
$$
MOZ032>034-039>042-045>050-055>058-069>072-250800-
...CENTRAL MISSOURI...  
  
CITY           SKY/WX    TMP DP  RH WIND       PRES   REMARKS
COLUMBIA       CLOUDY    51  47  86 N13       30.04R                  
JEFFERSON CITY CLOUDY    54  48  80 N8        30.04R                  
ROLLA          CLOUDY    51  44  77 NW9       30.00F                  
SEDALIA        CLOUDY    50  48  93 NW9       30.07R                  
WARRENSBURG    RAIN      50  46  87 N9        30.09R                  
OSAGE BEACH    CLOUDY    52  47  83 NW6       30.04F                  
               
$$
MOZ051-052-059>065-250800-
...EAST CENTRAL MISSOURI...
  
CITY           SKY/WX    TMP DP  RH WIND       PRES   REMARKS
ST LOUIS INTL  CLOUDY    53  51  93 N9        29.98R FOG              
SPIRIT OF STL  CLOUDY    53  51  93 NW12G25   29.98R                  
ST CHARLES     LGT RAIN  53  51  93 NW12      29.99R FOG              
                   
$$
MOZ072>076-082>087-097>100-106>115-250800-
...SOUTH CENTRAL AND SOUTHEAST MISSOURI...
  
CITY           SKY/WX    TMP DP  RH WIND       PRES   REMARKS
CAPE GIRARDEAU FAIR      53  51  93 NW5       29.93F FOG              
FARMINGTON     MOCLDY    53  52  96 W6        29.96S                  
POPLAR BLUFF   FAIR      58  58 100 NW6       29.94F FOG              
WEST PLAINS    CLEAR     48  44  86 NW7       30.01F                  
                                       
$$